{"data":{"norad_id":64350,"epoch":"2026-09-20T09:30:20.835936Z","epoch_age_seconds":143420,"freshness":"FRESH","line1":"1 64350U 25126G   26263.39607449  .00006198  00000+0  21994-3 0  9996","line2":"2 64350  70.0002 261.2727 0003216 270.9216  89.1591 15.29571224 69900","mean_motion":15.29571224,"eccentricity":0.0003216,"inclination_deg":70.0002,"raan_deg":261.2727,"arg_perigee_deg":270.9216,"mean_anomaly_deg":89.1591,"bstar":0.00021994,"rev_number":6990,"period_min":94.144030523419,"perigee_km":474.8884823189,"apogee_km":479.29776633487,"semimajor_km":6855.2301243269,"source":"CELESTRAK","updated_at":"2026-09-21T09:00:35.316913Z"}}